2024-208B

Last updated on Wed Nov 20 2024 00:02:05 GMT+0000 (Coordinated Universal Time)

1 61937U 24208B 24322.98259828 -.00000059 00000+0 00000+0 0 9999 2 61937 97.9916 327.5902 0022244 281.3514 92.7602 14.88760634 604
UTC large
Height (km)
Speed (km/s)
/
Latitude / Longitude
Inclination (degrees)
Orbital Period (minutes)
Azimuth
Elevation
Range (km)
Doppler Factor

Next 0 passes for location: London (51.5072 / 0.1276)

Sorry there are no passes over London.